Wind_Speed
16 21 19 18 17 18 18 19 18 18 17 14 13 13 14 15 17 18 19 18 18 18 17 17 15 11 8 8 10 9 9 9 9 11 13 14 15 15 15 14 14 16 16
14 18 17 16 16 16 17 18 18 18 18 16 13 12 13 14 15 17 17 16 16 16 16 14 11 9 8 9 10 10 10 13 12 14 14 13 13 14 13 12 15 15 15
9 17 17 15 13 13 15 16 17 18 19 18 16 14 12 13 13 15 15 15 14 13 13 11 10 8 8 10 9 10 10 13 14 16 13 10 13 11 11 12 14 15 15
5 16 17 15 13 13 14 15 17 18 18 19 17 15 14 13 13 13 13 12 13 12 12 11 10 8 9 9 8 10 11 13 15 13 11 14 13 11 13 15 16 16 15
8 14 15 14 13 12 13 14 15 17 18 18 17 16 14 14 13 13 12 11 11 11 11 10 9 9 9 9 9 10 11 12 14 9 10 12 12 14 15 16 17 17 18
7 7 9 12 13 12 12 13 15 17 18 18 18 16 15 15 14 13 12 11 11 10 10 10 9 8 9 10 11 11 11 12 11 7 8 13 14 16 17 18 19 19 16
10 7 4 7 10 11 11 12 14 16 18 18 17 17 17 16 16 15 13 12 11 11 10 9 9 9 9 9 10 11 12 13 10 9 10 15 14 16 18 18 17 16 18
8 6 4 2 7 11 11 12 13 15 16 17 18 18 18 18 18 17 15 13 12 11 11 9 9 10 9 9 10 11 13 12 10 11 12 14 16 17 17 17 16 17 19
5 2 3 4 5 11 15 14 14 15 16 17 17 18 18 18 18 18 16 15 14 13 12 10 10 10 9 9 10 11 13 9 11 12 11 15 16 16 17 17 16 16 18
22 13 10 8 7 9 17 18 16 15 16 17 17 17 18 18 19 19 18 17 16 15 14 12 11 11 10 10 10 11 14 13 12 10 11 13 15 15 16 17 16 17 17
33 29 24 15 16 14 15 18 17 17 16 17 18 20 20 21 21 21 21 20 19 18 16 14 12 12 11 11 11 12 12 12 10 12 12 13 16 15 16 17 17 19 16
35 30 27 26 27 22 17 18 21 20 20 19 20 21 23 24 24 23 22 21 20 18 17 15 14 13 13 13 12 13 13 13 13 14 14 15 17 17 19 19 19 19 18
24 32 34 31 30 30 20 21 23 24 25 24 24 24 25 25 25 24 23 22 21 20 19 17 16 16 15 15 14 12 13 14 10 15 15 15 16 15 18 20 20 20 17
30 29 33 32 31 33 30 25 23 28 29 29 28 26 27 28 28 28 27 26 26 25 23 21 19 18 17 16 15 14 15 13 11 17 17 15 15 15 18 20 22 21 18
37 36 32 35 33 34 32 32 29 25 28 34 34 32 32 32 33 32 31 30 31 29 27 25 22 20 20 20 18 15 14 15 11 14 17 18 16 15 16 20 22 21 20
35 41 41 35 33 36 34 32 33 30 27 26 36 38 38 39 38 36 34 33 33 33 31 28 26 24 22 22 22 18 17 14 16 18 16 20 19 18 15 17 20 20 21
29 35 41 38 35 35 35 35 34 33 30 28 22 40 40 43 42 40 38 37 37 35 32 30 28 25 23 24 24 22 19 17 17 20 19 21 23 21 17 18 18 19 19
28 32 40 40 41 37 34 37 35 36 34 31 27 23 43 47 46 44 43 42 40 37 35 33 32 31 27 25 26 23 24 21 18 22 24 23 25 24 20 21 23 21 19
32 33 36 36 38 42 37 35 33 34 35 34 31 29 22 43 47 46 42 41 41 40 37 36 35 34 32 30 28 26 26 20 21 21 20 22 24 26 25 24 24 23 22
34 32 33 33 36 40 38 30 30 27 32 35 33 33 29 24 45 43 41 42 43 42 40 38 37 37 34 31 29 27 25 23 25 24 21 23 25 26 29 27 27 28 25
36 35 35 35 35 34 34 33 30 29 27 33 33 33 37 33 31 31 39 41 46 40 40 43 39 36 34 33 27 23 23 24 26 29 29 27 26 28 29 26 25 26 29
30 31 31 33 33 33 31 32 30 27 27 28 33 34 36 34 30 36 42 43 48 38 38 40 39 27 27 35 20 11 3 11 27 32 31 31 32 30 32 30 30 29 29
33 35 33 33 33 33 35 31 29 28 26 25 24 27 31 29 32 28 37 33 45 44 40 42 41 33 26 32 32 13 3 5 3 19 34 35 36 34 34 34 33 32 31
31 31 32 33 32 31 32 29 26 26 25 25 29 29 32 32 29 34 29 40 39 42 40 45 43 42 33 26 32 36 15 11 4 2 15 33 39 39 39 38 38 37 36
30 31 32 33 32 30 30 30 29 26 26 26 26 34 33 38 30 32 29 30 47 40 43 40 40 41 41 30 32 26 24 16 10 3 3 4 21 34 40 39 39 39 38
30 32 32 31 31 32 30 29 28 28 27 24 25 26 27 29 28 21 13 10 18 51 45 43 43 40 38 32 31 28 26 19 14 5 3 3 4 10 29 32 35 37 38
Wind_Direction
161 168 164 165 159 155 151 148 147 147 147 142 131 127 121 119 121 125 129 131 135 137 137 139 139 135 119 107 112 127 129 132 127 127 127 129 128 124 125 124 125 123 127
179 174 171 170 166 163 160 156 154 154 154 151 141 138 133 130 130 131 131 131 132 135 136 140 140 134 128 121 117 115 123 126 131 130 131 129 130 132 126 128 129 125 124
173 182 179 178 173 173 171 167 163 162 161 159 154 149 146 140 139 140 141 142 140 139 139 142 134 136 137 131 125 118 127 128 128 133 131 141 142 136 124 134 127 125 124
214 189 184 181 182 185 183 178 174 169 167 166 162 159 158 157 153 149 146 144 142 143 143 147 143 144 141 132 130 131 135 137 137 135 135 141 147 149 143 143 134 132 131
181 189 187 186 193 195 193 189 183 177 174 174 170 168 166 167 164 162 157 154 150 150 147 150 150 153 151 142 138 138 141 144 141 129 150 144 149 149 151 146 146 143 140
110 171 201 206 202 199 201 197 190 185 182 181 180 178 175 176 173 172 169 165 163 160 157 153 155 158 155 147 146 148 148 146 148 143 163 170 159 154 154 153 150 147 149
117 140 153 222 222 213 210 208 199 192 190 189 190 187 183 182 181 181 179 178 175 173 173 171 166 166 163 157 156 158 155 152 159 164 152 162 165 162 160 157 158 158 152
73 130 113 119 232 235 226 218 208 202 200 199 199 198 193 189 187 187 186 186 185 182 182 184 179 176 174 171 167 165 162 160 159 160 160 168 172 172 166 165 165 164 161
49 345 245 241 263 238 229 225 218 213 213 212 211 209 203 198 194 192 193 192 189 189 190 192 189 191 187 181 176 173 164 163 169 166 173 174 179 176 173 172 175 175 170
36 345 293 263 278 279 234 221 227 226 225 223 221 219 213 206 202 199 197 196 195 193 196 198 197 199 203 188 183 178 172 158 164 178 179 179 179 180 181 179 177 175 172
26 23 15 320 300 282 253 234 225 230 231 228 225 222 216 211 207 204 204 201 201 197 197 199 204 204 203 196 188 183 186 180 177 179 181 178 179 189 189 186 183 182 185
33 29 23 15 356 304 268 246 235 230 231 230 227 223 219 216 212 208 209 207 206 205 204 202 201 207 206 200 195 190 191 183 179 184 194 184 182 188 189 188 188 186 179
24 20 16 16 15 17 346 278 253 242 234 231 227 222 221 221 218 214 211 209 208 210 207 206 204 203 207 204 200 195 196 197 196 195 199 190 192 191 193 190 191 189 187
12 15 4 360 357 1 358 1 346 267 247 235 231 225 221 218 219 218 213 212 209 211 211 210 209 204 204 209 208 198 196 203 212 211 205 212 200 194 193 198 194 192 201
6 359 1 354 348 346 346 344 347 353 275 250 236 228 223 221 219 220 218 215 214 212 213 211 211 208 206 207 208 205 208 204 212 197 207 208 205 199 203 201 200 205 204
359 352 347 353 344 337 334 330 333 336 345 276 252 239 228 225 221 220 220 218 217 216 215 215 213 213 211 209 212 216 217 215 202 203 216 211 209 208 205 211 204 206 205
0 351 346 343 343 341 332 323 320 321 325 330 289 250 240 233 224 219 220 220 219 218 218 216 217 217 214 211 212 216 215 216 218 219 205 211 211 210 212 208 211 216 218
357 355 346 342 333 336 332 322 317 308 313 312 317 284 240 236 229 220 216 218 220 219 218 217 215 217 213 209 209 213 215 219 222 219 214 215 212 213 209 222 220 220 223
358 352 348 343 338 331 330 325 317 308 302 300 302 301 307 245 234 221 212 217 217 218 218 217 214 214 214 215 213 215 223 226 222 218 221 220 223 219 216 224 226 231 231
354 351 345 339 334 333 328 324 319 312 304 298 297 296 299 291 242 228 216 212 217 213 214 215 212 213 215 215 212 216 222 228 223 234 230 231 228 231 225 228 227 229 237
352 348 344 336 333 332 327 322 320 311 310 306 301 292 289 291 299 231 234 214 216 208 210 212 211 210 213 210 207 221 225 227 230 229 238 238 233 233 233 232 234 236 238
344 342 339 335 331 326 317 312 307 303 302 298 298 297 293 292 300 254 238 221 216 207 208 210 206 204 209 208 196 165 196 238 241 235 236 237 236 234 232 237 240 238 239
343 342 338 332 326 322 316 312 310 304 301 300 298 292 288 286 279 286 259 227 218 210 205 207 206 200 202 207 204 180 152 211 187 224 232 234 237 233 236 240 241 242 242
339 339 336 331 327 323 316 311 306 300 299 299 293 293 291 289 280 278 271 246 235 216 205 205 203 200 196 195 202 205 198 159 176 200 225 229 233 238 239 241 243 243 240
343 341 336 333 329 325 321 317 309 302 298 297 295 291 286 291 280 269 278 269 242 229 216 205 199 192 196 194 199 201 208 189 182 143 208 219 229 240 240 241 245 246 245
346 343 340 334 334 333 333 332 316 311 310 304 293 285 283 282 278 243 277 316 254 226 223 204 202 198 197 200 201 212 212 208 206 176 200 207 238 245 239 236 240 244 248
Height
771 772 772 774 774 775 776 776 778 779 782 786 788 790 791 792 792 794 797 800 801 802 804 806 808 810 810 812 812 813 813 812 813 814 815 815 815 816 816 817 818 819 820
772 774 775 775 776 777 777 777 778 780 781 785 788 791 792 793 794 794 797 800 803 804 805 807 809 811 811 812 813 814 813 813 814 815 816 816 817 817 819 820 820 822 824
772 773 775 777 778 780 779 779 779 780 781 783 786 790 793 794 795 796 797 799 801 804 805 808 809 811 811 812 813 814 814 814 816 816 816 817 818 819 819 821 822 823 825
773 773 775 777 778 780 781 781 781 781 783 784 786 789 792 794 796 797 799 800 801 804 805 808 809 810 811 812 813 813 813 815 815 817 818 818 819 820 820 821 822 824 826
774 777 778 777 779 781 782 782 783 783 784 786 786 788 791 794 796 797 798 801 802 805 806 808 809 810 811 812 813 813 814 815 816 818 819 818 820 820 821 821 823 824 826
779 780 782 781 780 781 783 783 783 784 784 786 787 789 790 793 795 798 799 801 803 806 808 808 810 811 812 812 812 813 813 815 816 817 817 818 819 820 822 822 823 824 825
780 782 782 782 783 783 784 784 784 784 785 787 788 789 790 792 794 797 798 800 803 805 807 809 809 811 812 813 813 812 814 814 815 817 817 819 820 820 821 822 823 824 825
781 782 782 783 784 785 784 785 784 786 786 787 788 789 790 791 793 795 797 799 802 804 807 808 810 810 812 813 813 813 813 814 815 816 817 819 819 820 821 822 823 824 824
784 784 783 783 782 782 782 784 784 785 786 787 789 790 791 792 793 794 796 798 801 803 806 808 809 811 812 812 813 814 813 814 815 815 815 817 819 820 820 822 823 824 825
790 789 788 786 784 783 781 781 784 785 786 787 789 791 792 793 793 793 794 796 798 801 804 806 808 809 811 811 813 814 815 813 814 816 816 816 818 820 821 822 823 825 826
790 790 790 790 789 786 783 783 783 785 785 786 787 788 790 791 792 792 793 794 796 798 800 803 806 807 808 810 811 812 814 814 813 815 815 816 816 818 820 822 823 824 827
794 793 792 790 789 787 785 783 781 781 782 783 784 787 788 789 790 790 792 793 795 797 799 801 802 806 808 809 810 811 813 814 813 813 814 814 815 816 819 820 823 825 826
800 796 794 792 790 788 785 785 781 781 778 778 779 781 785 788 789 789 790 792 794 797 798 800 801 802 805 808 808 810 812 813 814 813 813 813 814 815 817 819 821 824 825
797 799 796 793 791 790 787 784 782 780 779 776 777 778 779 782 785 786 786 788 789 792 794 796 798 799 801 805 807 807 809 811 812 812 813 814 814 814 816 817 819 822 824
797 797 797 794 790 788 786 784 782 778 777 775 772 771 773 776 778 781 781 783 784 786 789 791 794 796 798 800 804 805 807 807 809 810 812 813 813 813 814 816 818 820 823
802 797 794 793 791 788 785 782 779 778 774 771 770 768 767 768 771 774 777 778 780 781 784 787 789 792 794 797 800 803 805 807 807 807 809 811 812 813 814 816 816 819 820
808 803 795 790 789 787 783 779 775 774 773 771 766 764 763 769 765 767 770 771 773 776 780 782 786 788 790 793 795 798 802 803 805 805 806 808 809 811 813 814 815 817 818
809 803 796 791 786 783 781 776 772 769 768 765 763 760 760 758 761 758 758 761 767 771 774 777 778 783 784 786 790 793 797 800 801 802 802 803 806 807 809 812 813 814 816
807 802 796 791 786 779 776 773 769 766 764 760 758 756 753 752 750 751 749 754 759 763 767 770 772 776 779 782 785 787 792 796 797 798 798 799 801 803 804 805 807 810 813
807 804 800 794 786 779 773 769 765 760 758 755 752 748 745 743 744 740 741 744 750 756 759 763 767 769 773 778 781 782 785 790 793 793 794 795 796 797 799 801 803 805 807
806 801 797 792 787 779 772 766 761 755 751 748 746 743 739 735 732 721 736 738 742 746 749 755 759 762 767 770 777 780 780 783 787 788 790 790 791 793 795 795 796 799 801
810 804 799 792 785 779 773 766 761 753 747 743 740 736 732 728 729 728 729 728 733 735 742 747 752 757 762 764 767 772 777 779 778 780 783 785 784 786 788 790 792 793 795
809 801 797 792 784 776 770 763 756 749 742 737 734 730 726 725 723 723 699 714 723 722 728 734 742 748 755 759 761 762 773 772 772 772 774 778 780 780 782 785 787 787 788
814 805 799 791 783 776 769 761 754 746 737 734 729 724 720 717 717 720 716 718 721 719 717 717 725 731 744 749 756 756 755 753 763 769 767 768 772 775 775 777 779 781 782
813 805 799 790 783 776 767 758 749 740 734 728 723 718 713 708 708 706 709 711 712 713 713 716 720 720 730 738 743 748 750 750 751 757 763 763 765 767 768 769 773 775 777
813 807 798 790 781 772 762 753 746 738 730 723 718 711 706 702 699 697 697 704 710 684 705 706 715 718 720 729 736 743 744 745 745 751 756 758 760 761 763 762 765 768 770